Notices

Due to recent upgrades, we are currently experiencing delays in populating our data report tables. We thank you for your patience during this time of difficulty as we are working in rectifying this issue as soon as possible. If you have any questions or concerns, please contact us.

Hourly Data Report for October 20, 2020

SAINT JOHN A
NEW BRUNSWICK
Current Station Operator: NAVCAN

45°18'58.000" N
65°53'24.000" W
108.80 m
8104901
71609
YSJ

Download Data

Hourly Data (October 2020)
Hourly Data Report for October 20, 2020
TIME
LST
Temp Definition
°C
Dew Point Definition
°C
Rel Hum Definition
%
Precip. Amount Definition
mm

Wind Dir Definition
10's deg

Wind Spd Definition
km/h
Visibility Definition
km
Stn Press Definition
kPa
Hmdx Definition


Wind Chill Definition


Weather Definition


00:00 10.0 10.0 100 LegendMM 36 3 4.8 101.41     Fog
01:00 10.1 10.1 100 LegendMM 36 1 6.4 101.39     Fog
02:00 10.0 10.0 100 LegendMM 31 5 9.7 101.38     Fog
03:00 9.6 9.5 100 LegendMM 21 3 16.1 101.32     LegendNANA
04:00 9.1 9.1 100 LegendMM 28 5 16.1 101.32     LegendNANA
05:00 7.4 7.4 100 LegendMM 36 2 12.9 101.26     Mostly Cloudy
06:00 7.4 7.4 100 LegendMM 18 4 16.1 101.21     LegendNANA
07:00 9.7 9.7 100 LegendMM 15 10 4.8 101.16     Fog
08:00 10.5 10.5 100 LegendMM 20 10 6.4 101.25     Fog
09:00 10.6 10.6 100 LegendMM 20 14 4.8 101.18     Drizzle, Fog
10:00 10.9 10.9 100 LegendMM 21 16 8.1 101.16     Drizzle, Fog
11:00 11.4 10.3 93 LegendMM 20 22 16.1 101.15     Cloudy
12:00 13.4 9.2 76 LegendMM 20 23 24.1 101.13     LegendNANA
13:00 12.6 9.3 81 LegendMM 21 30 24.1 101.12     LegendNANA
14:00 11.7 9.3 85 LegendMM 21 23 24.1 101.11     Cloudy
15:00 12.0 9.8 86 LegendMM 21 22 24.1 101.10     LegendNANA
16:00 12.0 10.2 88 LegendMM 21 26 24.1 101.14     LegendNANA
17:00 11.8 11.1 95 LegendMM 20 24 19.3 101.12     Cloudy
18:00 12.0 11.6 98 LegendMM 21 17 12.9 101.18     LegendNANA
19:00 12.4 11.9 97 LegendMM 22 11 4.8 101.25     Fog
20:00 12.2 12.1 100 LegendMM 22 14 3.2 101.31     Fog
21:00 12.3 12.3 100 LegendMM 22 15 3.2 101.36     Fog
22:00 12.3 12.3 100 LegendMM 24 8 3.2 101.38     Fog
23:00 12.3 12.3 100 LegendMM 31 7 4.8 101.41     Fog

Notes on Data Quality.

Legend

  • E = Estimated
  • M = Missing
  • NA = Not Available*
  • [empty] = Indicates an unobserved value
Date modified: